• Em Portugal
  • Lista de países
  • Para 7 dias
  • Temperatura da água
  • Mapas de satélite
  • Mapa do tempo
  • Widgets de tempo
  • user-avatar
    Iniciar Sessão

    Previsão horária em Bengazi

    Hoje, 22 Outubro, Segunda-feira

    Tempo Temperatura Precipitação Vento Pressão Humidade
    00:00 +26°C° 0.1 mm 4 m/s 760 mmHg 66%
    01:00 +26°C° 0.1 mm 4 m/s 760 mmHg 68%
    02:00 +26°C° 0 mm 3 m/s 760 mmHg 69%
    03:00 +25°C° 0 mm 3 m/s 760 mmHg 69%
    04:00 +25°C° 0 mm 3 m/s 760 mmHg 70%
    05:00 +25°C° 0 mm 3 m/s 760 mmHg 70%
    06:00 +25°C° 0 mm 3 m/s 760 mmHg 70%
    07:00 +25°C° 0 mm 3 m/s 760 mmHg 71%
    08:00 +26°C° 0 mm 3 m/s 760 mmHg 66%
    09:00 +27°C° 0 mm 4 m/s 760 mmHg 62%
    10:00 +27°C° 0 mm 4 m/s 760 mmHg 57%
    11:00 +28°C° 0 mm 4 m/s 760 mmHg 56%
    12:00 +28°C° 0 mm 5 m/s 760 mmHg 55%
    13:00 +29°C° 0 mm 5 m/s 759 mmHg 54%
    14:00 +28°C° 0.2 mm 5 m/s 759 mmHg 57%
    15:00 +28°C° 0.2 mm 5 m/s 759 mmHg 61%
    16:00 +27°C° 0.2 mm 5 m/s 759 mmHg 65%
    17:00 +27°C° 0.3 mm 4 m/s 759 mmHg 68%
    18:00 +26°C° 0.3 mm 3 m/s 759 mmHg 71%
    19:00 +25°C° 0.3 mm 3 m/s 760 mmHg 74%
    20:00 +25°C° 0 mm 2 m/s 760 mmHg 74%
    21:00 +25°C° 0 mm 2 m/s 760 mmHg 74%
    22:00 +25°C° 0 mm 1 m/s 760 mmHg 74%
    23:00 +25°C° 0 mm 2 m/s 760 mmHg 75%

    Amanhã, 23 Outubro, Terça-feira

    Tempo Temperatura Precipitação Vento Pressão Humidade
    00:00 +25°C° 0 mm 2 m/s 760 mmHg 76%
    01:00 +24°C° 0 mm 2 m/s 759 mmHg 77%
    02:00 +24°C° 0 mm 2 m/s 759 mmHg 78%
    03:00 +24°C° 0 mm 2 m/s 759 mmHg 79%
    04:00 +24°C° 0 mm 1 m/s 758 mmHg 80%
    05:00 +24°C° 0 mm 2 m/s 758 mmHg 80%
    06:00 +24°C° 0 mm 2 m/s 759 mmHg 80%
    07:00 +24°C° 0 mm 2 m/s 759 mmHg 80%
    08:00 +25°C° 0.5 mm 3 m/s 759 mmHg 74%
    09:00 +25°C° 0.5 mm 3 m/s 759 mmHg 69%
    10:00 +26°C° 0.5 mm 4 m/s 759 mmHg 64%
    11:00 +26°C° 0 mm 4 m/s 758 mmHg 60%
    12:00 +27°C° 0 mm 3 m/s 758 mmHg 56%
    13:00 +27°C° 0 mm 3 m/s 757 mmHg 53%
    14:00 +27°C° 0.7 mm 4 m/s 757 mmHg 54%
    15:00 +27°C° 0.7 mm 5 m/s 757 mmHg 55%
    16:00 +26°C° 0.7 mm 6 m/s 757 mmHg 56%
    17:00 +26°C° 0.6 mm 5 m/s 757 mmHg 58%
    18:00 +25°C° 0.6 mm 3 m/s 757 mmHg 60%
    19:00 +24°C° 0.6 mm 2 m/s 757 mmHg 61%
    20:00 +24°C° 0 mm 2 m/s 757 mmHg 62%
    21:00 +24°C° 0 mm 2 m/s 757 mmHg 62%
    22:00 +24°C° 0 mm 2 m/s 757 mmHg 63%
    23:00 +22°C° 1.1 mm 3 m/s 757 mmHg 65%

    Depois de amanhã, 24 Outubro, Quarta-feira

    Tempo Temperatura Precipitação Vento Pressão Humidade
    00:00 +22°C° 1.1 mm 3 m/s 756 mmHg 68%
    01:00 +21°C° 1.1 mm 3 m/s 756 mmHg 70%
    02:00 +21°C° 0.4 mm 3 m/s 756 mmHg 70%
    03:00 +21°C° 0.4 mm 3 m/s 755 mmHg 70%
    04:00 +21°C° 0.4 mm 3 m/s 755 mmHg 70%
    05:00 +21°C° 0 mm 3 m/s 755 mmHg 69%
    06:00 +21°C° 0 mm 3 m/s 755 mmHg 69%
    07:00 +21°C° 0 mm 3 m/s 755 mmHg 68%
    08:00 +22°C° 0 mm 4 m/s 756 mmHg 65%
    09:00 +22°C° 0 mm 4 m/s 756 mmHg 62%
    10:00 +23°C° 0 mm 5 m/s 756 mmHg 59%
    11:00 +23°C° 0 mm 5 m/s 756 mmHg 59%
    12:00 +25°C° 0 mm 5 m/s 756 mmHg 58%
    13:00 +24°C° 0 mm 6 m/s 756 mmHg 57%
    14:00 +24°C° 0 mm 6 m/s 756 mmHg 59%
    15:00 +23°C° 0 mm 6 m/s 756 mmHg 61%
    16:00 +23°C° 0 mm 6 m/s 756 mmHg 63%
    17:00 +23°C° 0 mm 5 m/s 756 mmHg 64%
    18:00 +23°C° 0 mm 5 m/s 757 mmHg 65%
    19:00 +23°C° 0 mm 5 m/s 757 mmHg 66%
    20:00 +23°C° 0 mm 5 m/s 758 mmHg 68%
    21:00 +23°C° 0 mm 5 m/s 758 mmHg 69%
    22:00 +22°C° 0 mm 6 m/s 759 mmHg 71%
    23:00 +22°C° 0 mm 6 m/s 759 mmHg 72%

    25 Outubro, Quinta-feira

    Tempo Temperatura Precipitação Vento Pressão Humidade
    00:00 +22°C° 0 mm 7 m/s 759 mmHg 74%
    01:00 +22°C° 0 mm 7 m/s 759 mmHg 76%
    02:00 +22°C° 0 mm 7 m/s 759 mmHg 76%
    03:00 +22°C° 0 mm 8 m/s 759 mmHg 76%
    04:00 +22°C° 0 mm 8 m/s 759 mmHg 77%
    05:00 +22°C° 0 mm 8 m/s 759 mmHg 75%
    06:00 +22°C° 0 mm 8 m/s 760 mmHg 73%
    07:00 +22°C° 0 mm 9 m/s 760 mmHg 72%
    08:00 +23°C° 0 mm 9 m/s 760 mmHg 67%
    09:00 +24°C° 0 mm 9 m/s 761 mmHg 63%
    10:00 +26°C° 0 mm 9 m/s 761 mmHg 58%
    11:00 +26°C° 0 mm 9 m/s 761 mmHg 57%
    12:00 +26°C° 0 mm 9 m/s 761 mmHg 57%
    13:00 +26°C° 0 mm 9 m/s 761 mmHg 56%
    14:00 +26°C° 0 mm 9 m/s 761 mmHg 56%
    15:00 +26°C° 0 mm 9 m/s 761 mmHg 57%
    16:00 +26°C° 0 mm 9 m/s 761 mmHg 58%
    17:00 +24°C° 0 mm 8 m/s 761 mmHg 58%
    18:00 +24°C° 0 mm 8 m/s 762 mmHg 59%
    19:00 +23°C° 0 mm 7 m/s 762 mmHg 59%
    20:00 +23°C° 0 mm 7 m/s 763 mmHg 60%
    21:00 +23°C° 0 mm 6 m/s 763 mmHg 61%
    22:00 +22°C° 0 mm 6 m/s 763 mmHg 62%
    23:00 +22°C° 0 mm 6 m/s 763 mmHg 63%

    26 Outubro, Sexta-feira

    Tempo Temperatura Precipitação Vento Pressão Humidade
    00:00 +22°C° 0 mm 5 m/s 763 mmHg 64%
    01:00 +21°C° 0 mm 5 m/s 763 mmHg 65%
    02:00 +21°C° 0 mm 5 m/s 763 mmHg 65%
    03:00 +21°C° 0 mm 5 m/s 763 mmHg 66%
    04:00 +21°C° 0 mm 4 m/s 763 mmHg 66%
    05:00 +21°C° 0 mm 5 m/s 764 mmHg 65%
    06:00 +21°C° 0 mm 5 m/s 764 mmHg 64%
    07:00 +20°C° 0 mm 5 m/s 764 mmHg 63%
    08:00 +21°C° 0 mm 5 m/s 765 mmHg 58%
    09:00 +22°C° 0 mm 4 m/s 765 mmHg 54%
    10:00 +23°C° 0 mm 4 m/s 765 mmHg 49%
    11:00 +23°C° 0 mm 4 m/s 765 mmHg 47%
    12:00 +25°C° 0 mm 3 m/s 765 mmHg 45%
    13:00 +25°C° 0 mm 3 m/s 764 mmHg 42%
    14:00 +25°C° 0 mm 4 m/s 764 mmHg 44%
    15:00 +25°C° 0 mm 4 m/s 765 mmHg 46%
    16:00 +25°C° 0 mm 5 m/s 765 mmHg 48%
    17:00 +25°C° 0 mm 5 m/s 765 mmHg 51%
    18:00 +23°C° 0 mm 5 m/s 765 mmHg 55%
    19:00 +23°C° 0 mm 6 m/s 765 mmHg 58%
    20:00 +22°C° 0 mm 5 m/s 766 mmHg 58%
    21:00 +22°C° 0 mm 5 m/s 766 mmHg 58%
    22:00 +22°C° 0 mm 4 m/s 766 mmHg 57%
    23:00 +22°C° 0 mm 4 m/s 766 mmHg 57%

    27 Outubro, Sábado

    Tempo Temperatura Precipitação Vento Pressão Humidade
    00:00 +21°C° 0 mm 4 m/s 766 mmHg 56%
    01:00 +21°C° 0 mm 4 m/s 765 mmHg 55%
    02:00 +21°C° 0 mm 4 m/s 765 mmHg 57%
    03:00 +20°C° 0 mm 4 m/s 765 mmHg 59%
    04:00 +20°C° 0 mm 4 m/s 765 mmHg 60%
    05:00 +20°C° 0 mm 5 m/s 766 mmHg 60%
    06:00 +20°C° 0 mm 5 m/s 766 mmHg 60%
    07:00 +20°C° 0 mm 5 m/s 766 mmHg 59%
    08:00 +21°C° 0 mm 5 m/s 766 mmHg 56%
    09:00 +22°C° 0 mm 5 m/s 766 mmHg 52%
    10:00 +23°C° 0 mm 5 m/s 766 mmHg 49%
    11:00 +23°C° 0 mm 4 m/s 766 mmHg 47%
    12:00 +25°C° 0 mm 4 m/s 765 mmHg 46%
    13:00 +25°C° 0 mm 3 m/s 764 mmHg 44%
    14:00 +25°C° 0 mm 3 m/s 764 mmHg 44%
    15:00 +25°C° 0 mm 3 m/s 764 mmHg 43%
    16:00 +25°C° 0 mm 2 m/s 764 mmHg 43%
    17:00 +25°C° 0 mm 2 m/s 764 mmHg 44%
    18:00 +25°C° 0 mm 2 m/s 764 mmHg 45%
    19:00 +24°C° 0 mm 2 m/s 764 mmHg 47%
    20:00 +24°C° 0 mm 3 m/s 764 mmHg 47%
    21:00 +24°C° 0 mm 3 m/s 764 mmHg 48%
    22:00 +23°C° 0 mm 4 m/s 765 mmHg 49%
    23:00 +22°C° 0 mm 4 m/s 764 mmHg 49%

    28 Outubro, Domingo

    Tempo Temperatura Precipitação Vento Pressão Humidade
    00:00 +22°C° 0 mm 5 m/s 764 mmHg 50%
    01:00 +22°C° 0 mm 5 m/s 764 mmHg 50%
    02:00 +21°C° 0 mm 6 m/s 764 mmHg 51%
    03:00 +21°C° 0 mm 6 m/s 764 mmHg 51%
    04:00 +21°C° 0 mm 6 m/s 764 mmHg 51%
    05:00 +21°C° 0 mm 6 m/s 764 mmHg 51%
    06:00 +21°C° 0 mm 7 m/s 764 mmHg 50%
    07:00 +21°C° 0 mm 7 m/s 764 mmHg 49%
    08:00 +22°C° 0 mm 7 m/s 764 mmHg 46%
    09:00 +22°C° 0 mm 7 m/s 764 mmHg 43%
    10:00 +23°C° 0 mm 7 m/s 764 mmHg 40%
    11:00 +24°C° 0 mm 7 m/s 764 mmHg 39%
    12:00 +26°C° 0 mm 7 m/s 764 mmHg 39%
    13:00 +26°C° 0 mm 6 m/s 763 mmHg 38%
    14:00 +26°C° 0 mm 6 m/s 763 mmHg 38%
    15:00 +26°C° 0 mm 5 m/s 763 mmHg 38%
    16:00 +26°C° 0 mm 5 m/s 762 mmHg 39%
    17:00 +26°C° 0 mm 5 m/s 763 mmHg 40%
    18:00 +25°C° 0 mm 5 m/s 763 mmHg 42%
    19:00 +25°C° 0 mm 5 m/s 763 mmHg 43%
    20:00 +23°C° 0 mm 5 m/s 763 mmHg 44%
    21:00 +23°C° 0 mm 6 m/s 763 mmHg 44%
    22:00 +23°C° 0 mm 7 m/s 763 mmHg 44%
    23:00 +22°C° 0 mm 7 m/s 763 mmHg 45%
    Mostrar mais